This demonstration page uses our WeatherBlox Daily Observations layout. Learn more.

Left ArrowRight Arrow

34.02893, -84.19858

Hourly Observations for July 14, 2018

Temp ( °F °C ) Dew Point ( °F °C ) Humidity (%) Winds ( mph kmh ) Pressure ( in mb ) Visibility ( mi km ) Precip ( " mm )
12:53 am 00:53 Partly Cloudy 75 23.9 73 22.8 94 94 Calm 30.09 1019 8 13 0.00 0.00
1:53 am 01:53 Partly Cloudy 75 23.9 74 23.3 96 96 Calm 30.09 1019 7 11 0.00 0.00
2:11 am 02:11 Mostly Cloudy 75 23.9 74 23.3 96 96 E 3 6 30.12 1020 7 11 0.00 0.00
2:46 am 02:46 Cloudy 75 23.9 74 23.3 96 96 VRB 5 7 30.12 1020 8 13 0.00 0.00
2:53 am 02:53 Cloudy 75 23.9 74 23.3 96 96 VRB 3 6 30.08 1019 8 13 0.00 0.00
3:53 am 03:53 Cloudy 75 23.9 74 23.3 96 96 Calm 30.07 1018 7 11 0.00 0.00
4:04 am 04:04 Cloudy with Mist and Fog 75 23.9 74 23.3 96 96 Calm 30.09 1019 6 10 0.00 0.00
4:30 am 04:30 Mostly Cloudy with Mist and Fog 75 23.9 74 23.3 96 96 Calm 30.09 1019 6 10 0.00 0.00
4:53 am 04:53 Clear with Mist and Fog 74 23.3 73 22.8 97 97 Calm 30.06 1018 6 10 0.00 0.00
5:14 am 05:14 Partly Cloudy with Mist and Fog 74 23.3 73 22.8 97 97 Calm 30.09 1019 6 10 0.00 0.00
5:30 am 05:30 Mostly Cloudy with Mist and Fog 75 23.9 73 22.8 94 94 Calm 30.09 1019 6 10 0.00 0.00
5:53 am 05:53 Cloudy with Mist and Fog 75 23.9 73 22.8 94 94 VRB 3 6 30.07 1018 6 10 0.00 0.00
6:14 am 06:14 Cloudy with Mist and Fog 75 23.9 73 22.8 94 94 Calm 30.09 1019 6 10 0.00 0.00
6:53 am 06:53 Cloudy with Mist and Fog 75 23.9 73 22.8 94 94 E 3 6 30.08 1019 6 10 0.00 0.00
7:53 am 07:53 Cloudy with Mist and Fog 75 23.9 73 22.8 94 94 Calm 30.10 1019 6 10 0.00 0.00
8:04 am 08:04 Cloudy with Mist and Fog 75 23.9 73 22.8 94 94 Calm 30.12 1020 6 10 0.00 0.00
8:53 am 08:53 Cloudy 76 24.4 73 22.8 91 91 Calm 30.11 1020 7 11 0.00 0.00
9:53 am 09:53 Cloudy 76 24.4 73 22.8 91 91 VRB 5 7 30.12 1020 8 13 0.00 0.00
10:53 am 10:53 Cloudy 77 25 73 22.8 88 88 VRB 3 6 30.12 1020 8 13 0.00 0.00
11:53 am 11:53 Cloudy 79 26.1 73 22.8 82 82 VRB 3 6 30.13 1020 9 14 0.00 0.00
12:53 pm 12:53 Cloudy 82 27.8 73 22.8 74 74 Calm 30.11 1020 10 16 0.00 0.00
1:46 pm 13:46 Partly Cloudy 84 28.9 74 23.3 72 72 VRB 6 9 30.09 1019 10 16 0.00 0.00
1:53 pm 13:53 Mostly Sunny 84 28.9 73 22.8 70 70 VRB 5 7 30.08 1019 10 16 0.00 0.00
2:35 pm 14:35 Mostly Cloudy 84 28.9 73 22.8 70 70 VRB 5 7 30.06 1018 10 16 0.00 0.00
2:42 pm 14:42 Mostly Cloudy 84 28.9 73 22.8 70 70 Calm 30.06 1018 10 16 0.00 0.00
2:53 pm 14:53 Cloudy 86 30 73 22.8 65 65 VRB 5 7 30.06 1018 10 16 0.00 0.00
3:53 pm 15:53 Mostly Cloudy 87 30.6 73 22.8 63 63 VRB 6 9 30.04 1017 10 16 0.00 0.00
4:53 pm 16:53 Mostly Cloudy 83 28.3 73 22.8 72 72 E 10 17 30.04 1017 10 16 0.00 0.00
5:53 pm 17:53 Mostly Sunny 81 27.2 71 21.7 72 72 VRB 6 9 30.04 1017 10 16 0.00 0.00
6:32 pm 18:32 Partly Cloudy with Nearby Thunderstorms 80 26.7 71 21.7 74 74 E 5 7 30.03 1017 10 16 0.00 0.00
6:53 pm 18:53 Mostly Cloudy 79 26.1 72 22.2 79 79 S 5 7 30.06 1018 10 16 0.00 0.00
7:53 pm 19:53 Mostly Cloudy 78 25.6 72 22.2 82 82 SE 3 6 30.04 1017 10 16 0.00 0.00
7:55 pm 19:55 Mostly Cloudy 78 25.6 72 22.2 82 82 SE 3 6 30.03 1017 10 16 0.00 0.00
8:53 pm 20:53 Mostly Cloudy 78 25.6 71 21.7 79 79 Calm 30.06 1018 10 16 0.00 0.00
9:53 pm 21:53 Mostly Cloudy 77 25 71 21.7 82 82 Calm 30.08 1019 10 16 0.00 0.00
10:53 pm 22:53 Partly Cloudy 76 24.4 72 22.2 88 88 Calm 30.08 1019 10 16 0.00 0.00
11:53 pm 23:53 Clear 76 24.4 72 22.2 88 88 Calm 30.06 1018 10 16 0.00 0.00

Powered by AerisWeather